Location: Gwredog
(53.3500°N, 4.4000°W)
Time: 12:20:32
(UTC+00:00)

Daily predictions for brighter satellites

Satellite Brightness Start Highest point End
(mag) Time Altitude Azimuth Time Altitude Azimuth Time Altitude Azimuth
Nadezhda 1 Rocket 4.5 16:36:43 10° SSE 16:42:38 43° E 16:48:38 10° NNE
Cosmos 2360 Rocket 3.0 16:39:52 10° SW 16:45:19 48° NW 16:50:47 10° NNE
BREEZE-M DEB (TANK) 4.2 16:45:20 10° SSW 16:46:41 14° SSE 16:47:55 10° ESE
Cosmos 2219 Rocket 2.3 16:45:46 10° SSW 16:51:26 89° WNW 16:57:08 10° NNE
H-2A R/B 3.0 16:48:28 10° NE 16:52:04 27° E 16:55:41 10° SSE
Cosmos 1607 4.3 16:46:04 10° SW 16:52:25 69° NW 16:58:55 10° NE
Meteor 1-27 4.5 16:46:51 10° SSW 16:52:29 77° WNW 16:58:16 10° NNE
Cosmos 1356 4.2 16:51:00 10° N 16:54:03 29° ENE 16:57:07 10° SE
Cosmos 2150 Rocket 4.3 16:51:33 10° NNW 16:56:44 72° WSW 17:01:50 10° SSE
YAOGAN 6 2.7 16:54:12 10° SSE 16:57:45 53° ENE 17:01:17 10° N
Cosmos 44 3.6 16:52:47 10° NW 16:57:56 58° NE 17:03:15 10° ESE
Cosmos 2154 Rocket 4.0 16:52:18 10° N 16:58:39 72° ENE 17:05:00 10° SSE
NOAA 6 4.0 16:54:03 10° SSE 16:59:12 77° ENE 17:04:22 10° NNW
Cosmos 540 Rocket 3.7 16:54:23 10° SSW 16:59:30 73° WNW 17:04:38 10° NNE
Cosmos 1980 Rocket 4.2 16:56:19 10° WNW 16:59:42 16° NNW 17:03:06 10° NNE
Cosmos 1633 Rocket 4.0 16:57:22 10° N 17:01:05 26° ENE 17:04:47 10° SE
Cosmos 1125 Rocket 3.6 16:57:20 10° NNW 17:02:35 86° WSW 17:07:48 10° SSE
SL-08 R/B 4.0 16:58:56 10° N 17:03:47 59° WNW 17:08:32 10° SSW
USA 267 3.3 16:58:21 10° E 17:04:51 71° NNE 17:11:23 10° WNW
CZ-4B R/B 3.1 17:00:17 10° SE 17:05:31 61° ENE 17:10:45 10° N
Cosmos 2237 Rocket 2.6 17:00:18 10° S 17:05:38 47° ESE 17:11:02 10° NE
SL-16 R/B 3.9 17:01:07 10° W 17:05:46 25° NW 17:10:26 10° NNE
Cosmos 2221 2.5 17:02:55 10° S 17:07:15 90° E 17:11:36 10° NNE
Cosmos 1862 3.4 17:03:57 10° NNW 17:08:01 82° W 17:12:02 10° S
CORIOLIS 4.3 17:02:56 10° SE 17:08:11 55° ENE 17:13:31 10° N
NOAA 11 4.5 17:03:51 10° SE 17:08:58 44° ENE 17:14:07 10° N
Lacrosse 5 rocket 3.4 17:10:26 10° SE 17:10:42 10° SE 17:10:58 10° ESE
SL-16 R/B 4.4 17:06:50 10° N 17:11:44 25° NW 17:16:37 10° WSW
Cosmos 2341 Rocket 4.1 17:05:59 10° N 17:12:08 53° ENE 17:18:17 10° SSE
Cosmos 2369 Rocket 2.9 17:08:21 10° NNW 17:13:28 32° NE 17:18:31 10° ESE
H-2A R/B 2.6 17:13:08 10° SSE 17:17:25 81° WSW 17:21:34 10° NNW
Cosmos 2208 Rocket 4.3 17:14:17 10° SW 17:19:34 71° WNW 17:24:59 10° NNE
Cosmos 2322 4.5 17:14:57 10° SW 17:20:27 50° NW 17:26:01 10° NNE
USA 281 3.6 17:14:35 10° ESE 17:20:35 40° NE 17:26:37 10° NNW
Cosmos 1500 Rocket 4.4 17:17:13 10° NNW 17:21:32 56° W 17:25:51 10° S
Helios 1A Rocket 4.3 17:19:20 10° E 17:22:07 18° ENE 17:24:55 10° NNE
CZ-2C R/B 4.0 17:19:39 10° ESE 17:23:32 23° ENE 17:27:19 10° N
Cosmos 841 Rocket 4.2 17:18:29 10° SW 17:23:35 52° WNW 17:28:41 10° NNE
Cosmos 1980 3.7 17:18:53 10° SSW 17:24:30 66° ESE 17:30:10 10° NE
Cosmos 2285 Rocket 4.1 17:18:31 10° NNW 17:24:53 59° ENE 17:31:09 10° SE
SL-8 Rocket 4.1 17:19:13 10° N 17:25:18 51° ENE 17:31:23 10° SSE
H-2A R/B 4.0 17:22:53 10° S 17:26:36 45° W 17:30:21 10° NNW
FengYun 1-2 T 4.2 17:25:16 10° SSE 17:30:44 65° ENE 17:36:13 10° NNW
Cosmos 1943 Rocket 2.3 17:25:20 10° NNW 17:30:46 51° NE 17:36:11 10° SE
Envisat 3.6 17:27:44 10° S 17:32:45 61° WSW 17:37:49 10° NNW
Cosmos 405 Rocket 4.5 17:32:06 10° NNW 17:35:43 36° W 17:39:23 10° SSW
YAOGAN 1 3.6 17:36:42 14° ESE 17:39:15 24° ENE 17:42:42 10° N
Cosmos 1470 Rocket 4.1 17:35:41 10° N 17:39:40 34° ENE 17:43:37 10° SE
CZ-4 R/B 2.4 17:39:48 16° ESE 17:41:58 25° ENE 17:45:18 10° N
ARGOS 4.3 17:42:11 19° ENE 17:43:41 22° NE 17:47:43 10° N
Cosmos 2181 Rocket 4.3 17:38:27 10° SSE 17:44:33 48° E 17:50:36 10° NNE
Cosmos 2297 3.7 17:39:35 10° NNW 17:45:18 89° SW 17:51:01 10° SSE
Sich 1 3.2 17:41:33 10° NNW 17:45:58 76° W 17:50:18 10° S
ADEOS Rocket 3.8 17:39:00 10° NNE 17:46:38 76° WNW 17:54:23 10° SSW
Cosmos 1939 Rocket 2.9 17:44:11 10° SE 17:47:56 48° ENE 17:51:44 10° N
COSMO-SKYMED 1 3.4 17:47:07 22° ENE 17:48:41 28° E 17:52:27 10° SSE
IRS-1C Rocket 4.2 17:45:27 10° SE 17:50:35 53° ENE 17:55:44 10° N
Meteor 1-4 Rocket 4.2 17:49:06 10° SE 17:50:34 18° ESE 17:50:34 18° ESE
Cosmos 2322 Rocket 4.2 17:47:57 10° WNW 17:51:57 19° NNW 17:55:57 10° NNE
USA 81 4.0 17:46:45 10° N 17:52:01 63° E 17:57:15 10° SSE
SL-16 R/B 2.6 17:50:29 10° S 17:55:48 44° ESE 17:59:03 22° NE
Cosmos 1606 2.6 17:52:02 10° S 17:55:56 85° E 17:59:51 10° NNE
SMAP 3.7 17:51:57 10° S 17:56:31 58° WSW 18:01:09 10° NNW
CZ-4C R/B 4.0 17:53:57 10° N 17:57:28 48° WNW 18:00:59 10° SW
Landsat 5 4.2 17:55:56 10° N 18:00:15 58° WNW 18:04:38 10° SSW
Cosmos 1151 Rocket 3.2 17:56:44 10° SSE 18:00:51 47° E 18:03:28 20° NNE
ISS -3.4 17:58:19 10° WSW 18:01:38 54° SSE 18:02:36 37° ESE
ERS-2 2.4 18:00:54 33° NE 18:01:59 44° E 18:05:31 10° S
H-2A R/B 2.6 17:59:31 16° ESE 18:03:01 34° ENE 18:07:36 10° N
Cosmos 2263 4.4 18:03:21 10° NNW 18:08:49 49° NE 18:11:55 24° ESE
Okean-O 2.8 18:05:02 10° SE 18:09:17 47° ENE 18:13:33 10° N
Cosmos 1933 Rocket 3.8 18:05:50 10° N 18:10:11 46° ENE 18:14:29 10° SSE
Cosmos 1666 Rocket 3.9 18:06:53 10° NNW 18:11:16 66° W 18:15:39 10° S
USA 215 3.9 18:09:24 26° E 18:12:20 37° SE 18:18:18 10° SSW
Okean O Rocket 2.9 18:10:58 10° S 18:15:07 42° W 18:19:18 10° NNW
CZ-4B R/B 1.0 18:15:00 69° ENE 18:15:13 74° ESE 18:18:18 10° S
Cosmos 44 Rocket 3.9 18:11:05 10° NW 18:15:58 43° NNE 18:17:18 36° ENE
Meteor 1-14 Rocket 4.3 18:10:12 10° N 18:16:07 66° ENE 18:22:04 10° SSE
Cosmos 1328 Rocket 3.5 18:12:01 10° S 18:16:16 59° E 18:18:28 27° NNE
Cosmos 2218 Rocket 3.9 18:11:19 10° N 18:17:30 88° W 18:23:40 10° S
Cosmos 2333 Rocket 3.7 18:12:37 10° W 18:17:36 30° NW 18:22:13 12° NNE
Cosmos 389 Rocket 3.1 18:15:11 10° SSW 18:18:32 53° WNW 18:20:54 18° N
Cosmos 1933 3.2 18:16:54 10° S 18:20:57 90° SSE 18:23:47 19° N
Meteor 1-26 Rocket 4.3 18:17:09 10° S 18:23:05 63° E 18:29:02 10° NNE
COSMOS 2428 4.1 18:18:37 10° WSW 18:23:46 33° NW 18:28:21 13° NNE
Cosmos 2366 rocket 4.0 18:17:56 10° NNW 18:24:11 84° W 18:30:20 10° S
H-2A R/B 3.2 18:24:15 10° N 18:28:10 41° WNW 18:32:08 10° SW
Cosmos 1782 3.0 18:24:52 10° S 18:28:09 49° SE 18:28:09 49° SE
Cosmos 2360 Rocket 4.3 18:26:56 10° WNW 18:30:44 18° NNW 18:34:18 11° NNE
Cosmos 1656 Rocket 3.7 18:27:34 10° NNW 18:33:09 55° NE 18:34:39 42° E
Cosmos 1602 3.8 18:29:40 10° NNW 18:33:38 76° W 18:37:31 10° S
CSL-04 Debris 4.2 18:30:38 24° SE 18:33:47 54° ENE 18:39:08 10° N
Cosmos 2219 Rocket 3.9 18:31:26 10° W 18:36:09 26° NW 18:40:10 13° NNE
SKYMED 2 3.4 18:35:45 45° NNE 18:37:02 76° ESE 18:41:22 10° S
Cosmos 1633 Rocket 4.2 18:34:54 10° NNW 18:39:05 43° W 18:43:12 10° SSW
CZ-2D R/B 3.5 18:36:13 10° S 18:40:02 69° WSW 18:43:54 10° NNW
Cosmos 1538 Rocket 4.3 18:36:47 10° S 18:41:40 47° ESE 18:41:40 47° ESE
Cosmos 489 Rocket 4.5 18:37:18 10° S 18:43:20 57° ESE 18:45:07 42° ENE
Meteor 1-5 Rocket 4.2 18:39:16 10° N 18:45:15 68° ENE 18:50:43 12° SSE
Cosmos 1867 3.5 18:40:09 10° SW 18:45:37 83° NW 18:47:22 45° NE
Cosmos 1980 Rocket 4.2 18:43:33 10° NNW 18:46:13 13° N 18:46:44 13° NNE
NOSS 3-3 (A) 4.4 18:39:29 10° NW 18:46:40 71° NE 18:50:00 38° ESE
NOSS 3-3 (C) 4.4 18:39:36 10° NW 18:46:46 70° NE 18:50:04 38° ESE
USA 267 3.4 18:43:59 26° SE 18:47:58 70° SSW 18:54:31 10° WNW
Cosmos 2239 Rocket 4.4 18:42:50 10° N 18:48:58 62° ENE 18:53:42 17° SSE
Lacrosse 5 rocket 2.2 18:45:33 10° SW 18:47:55 34° SSW 18:47:55 34° SSW
Cosmos 2237 Rocket 3.2 18:44:28 10° WSW 18:49:49 42° NW 18:53:22 20° NNE
SL-24 R/B 4.2 18:51:33 56° SSW 18:51:33 56° SSW 18:54:31 10° SSW
SL-16 R/B 4.3 18:49:14 10° NW 18:52:01 14° N 18:53:50 12° NNE
MOS 1 Rocket 3.6 18:53:09 58° ESE 18:53:09 58° ESE 18:58:20 10° S
CSL-04 Rocket 3.5 18:52:18 49° SE 18:53:38 70° ENE 18:58:56 10° NNW
Helios 1A Rocket 3.2 18:55:12 33° S 18:56:53 66° WSW 19:00:54 10° NNW
Cosmos 2369 Rocket 2.4 18:52:18 10° NW 18:58:00 71° WSW 19:01:56 20° SSE
SJ-11-01 4.2 18:59:51 80° NE 18:59:51 80° NE 19:04:29 10° NNW
CZ-2C R/B 3.2 18:58:04 10° S 19:03:04 66° WSW 19:07:54 10° NNW
USA 281 3.6 18:58:21 10° SSE 19:04:51 64° WSW 19:11:25 10° NNW
Cosmos 1943 Rocket 3.6 19:09:21 10° NW 19:14:23 36° WSW 19:19:26 10° S
YAOGAN 1 3.2 19:13:52 40° SSW 19:15:03 54° W 19:19:20 10° NNW
CZ-4 R/B 2.5 19:15:49 35° SW 19:16:49 42° W 19:20:41 10° NNW
Cosmos 1934 Rocket 3.9 19:10:27 10° N 19:16:32 68° ENE 19:16:32 68° ENE
Nadezhda 3 Rocket 3.9 19:10:57 10° S 19:17:17 77° E 19:19:08 49° NNE
ARGOS 3.1 19:23:42 79° NW 19:23:42 79° NW 19:28:49 10° NNW
COSMO-SKYMED 1 3.7 19:24:21 39° NW 19:25:00 41° WNW 19:29:05 10° SW
Cosmos 1821 Rocket 4.2 19:19:16 10° NNW 19:25:27 69° W 19:31:41 10° S
Cosmos 773 Rocket 4.5 19:20:40 10° SW 19:25:52 58° WNW 19:26:38 53° NNW
DEBRIS 4.4 19:24:42 10° W 19:34:36 45° SSW 19:34:45 45° SSW
ISS -0.6 19:34:57 10° W 19:35:33 14° W 19:35:33 14° W
Cosmos 2322 Rocket 4.4 19:35:50 10° NNW 19:38:23 13° N 19:38:23 13° N
SL-16 R/B 3.1 19:34:32 10° WSW 19:39:57 45° NW 19:40:57 41° NNW
H-2A R/B 2.9 19:40:09 31° SSW 19:42:19 48° W 19:47:20 10° NNW
Meteor 1-11 Rocket 4.2 19:37:11 10° NNW 19:41:45 57° NW 19:41:45 57° NW
USA 215 3.3 19:56:45 70° SW 19:56:45 70° SW 20:02:28 10° WSW
Cosmos 2333 Rocket 4.5 20:00:42 10° NW 20:03:48 15° NNW 20:04:13 14° N
Cosmos 2237 Rocket 4.5 20:31:51 10° WNW 20:35:12 17° NNW 20:35:12 17° NNW
